Flag for Yemen Weather past 2 weeks in Ta'izz, Yemen

Now
57 °F

Partly sunny.


Feels Like: 55 °F
Forecast: 58 / 83 °F
Wind: 8 mph from East

Location: Taiz

Current Time: Jan 29, 2015 at 8:12:50 AM

Latest Report: Jan 29, 2015 at 7:00 AM


Visibility: 4 mi

Pressure: 30.15 "Hg

Humidity: 88%

Dew point: 54 °F

Location of Ta'izzLocation

Historic Weather in Ta'izz — Graph

°F

Ta'izz temperature yesterday

Maximum temperature yesterday: 73 °F (at 2:00 PM)
Minimum temperature yesterday: 55 °F (at 6:00 AM)
Average temperature yesterday: 64 °F

Past Weeks' High & Low Weather Summary

 TemperatureHumidityPressure
High77 °F (Jan 15, 2:00 PM)100% (Jan 16, 7:00 AM)30.30 "Hg (Jan 16, 7:00 AM)
Low50 °F (Jan 24, 6:00 AM)29% (Jan 14, 4:00 PM)30.04 "Hg (Jan 19, 2:00 PM)
Average63 °F73%30.17 "Hg
* Reported Jan 14 7:00 AM — Jan 29 7:00 AM, Ta'izz, Weather by CustomWeather, © 2014

Note: Actual official high and low records may vary slightly from our data, if they occured in-between our weather recording intervals... More about our weather records

Advertising

Ta'izz weather history for previous 24 hours

 ConditionsComfort  
Time TempWeatherWind HumidityBarometerVisibility
7:00 AM
Jan 29
57 °FPartly sunny.8 mph88%30.15 "Hg4 mi
6:00 AM55 °FPassing clouds.3 mph94%30.12 "HgN/A
5:00 AM57 °FPassing clouds.6 mph88%30.12 "HgN/A
12:00 AM57 °FFog.6 mph100%30.15 "Hg1 mi
11:00 PM
Jan 28
57 °FFog.6 mph100%30.15 "Hg1 mi
10:00 PM59 °FPassing clouds.6 mph94%30.15 "Hg5 mi
9:00 PM61 °FClear.6 mph77%30.15 "Hg10 mi
8:00 PM63 °FClear.7 mph68%30.12 "Hg10 mi
7:00 PM68 °FClear.9 mph49%30.12 "Hg10 mi
6:00 PMN/ASunny.12 mphN/AN/A10 mi
5:00 PM73 °FSunny.12 mph33%30.09 "Hg10 mi
4:00 PM73 °FPassing clouds.13 mph29%30.07 "HgN/A
3:00 PM73 °FPassing clouds.14 mph36%30.07 "HgN/A
2:00 PM73 °FSunny.9 mph41%30.09 "Hg10 mi
1:00 PM72 °FSunny.9 mph44%30.12 "Hg10 mi
12:00 PM72 °FSunny.9 mph41%30.15 "Hg10 mi
11:00 AM66 °FPassing clouds.9 mph60%30.18 "HgN/A
10:00 AM63 °FPassing clouds.12 mph68%30.18 "HgN/A
9:00 AM59 °FScattered clouds.9 mph82%30.18 "HgN/A
8:00 AM57 °FScattered clouds.7 mph94%30.18 "Hg4 mi
Weather by CustomWeather, © 2014

See weather overviewHow to use our weather pages